COSMOS 1930

Satellite information

Favourite Embed

Satellite Type and Status

PAYLOADIN ORBIT

Key statistics

Satellite COSMOS 1930 at a glance.

Uptime

13797

Days in orbit

Revolutions

≈ 12.6

Per day

Orbit

LEO

Low Earth Orbit

Inclination

74.0

Latest

Satellite identification and parameters

Extended collection of information and parameters for COSMOS 1930.

Object identification

Identified? True

Debris? False

Object name: COSMOS 1930

International designator: 1988-016G

Object number (NORAD): 18943

Object ID (CCSDS): 18943

Country: COMMONWEALTH OF INDEPENDENT STATES (CIS)

Current information (Y/N): Y

RCS size: MEDIUM

Orbital parameters

Period: 114.592 minutes

Inclination: 74.0064 deg

SMA: 7814.992 km

Apoapsis: 1459.693 km

Periapsis: 1414.021 km

RAAN: 315.0409 deg

Eccentricy: 0.00292212

Argument of periapsis: 11.766 deg

Mean anomaly: 44.3138 deg

Mean motion: 12.56637309 rev/day

Mean motion (dot): -0.00000022 rev/day2

B* drag term: -0.000036992593 1/REarth

Two-line elements (TLE)

Creation date: Dec. 19, 2025, 2:08 a.m.

Reference frame: TEME

Reference center: EARTH

Epoch: Dec. 18, 2025, 10:21 p.m. UTC

TLE line 0: 0 COSMOS 1930

TLE line 1: 1 18943U 88016G 25352.93180648 -.00000022 00000-0 -36993-4 0 9994

TLE line 2: 2 18943 74.0064 315.0409 0029221 11.7660 44.3138 12.56637309732790

Live tracking on map

Real-time ground track for satellite COSMOS 1930.

In-orbit conjunctions

A list of the most updated potential collisions computed for object COSMOS 1930.

Target Orbit TCA Probability of collision Miss distance Type
DELTA 1 DEB SSO 2025-08-02 09:19:44 0.000155795 466.0 (m) DEBRIS
COSMOS 252 DEB LEO 2024-11-15 10:02:16 0.0003927132 171.0 (m) DEBRIS

Associated space launch

Military communications satellites

COSMOS 1930 was lifted into orbit during the mission ‘Kosmos-3M | Strela-1M 329-336’, on board a Kosmos-3M space rocket.

The launch took place on March 11, 1988, 12:18 a.m. from 132/1 (132L).

For more information about the launch, click the button.

Launch to space Kosmos-3M | Strela-1M 329-336
Kosmos-3M | Strela-1M 329-336

Agency: N/A

Status: Launch Successful

Launch date: March 11, 1988, 12:18 a.m. UTC

Rocket: Kosmos-3M

Launch pad: 132/1 (132L)

Location: Plesetsk Cosmodrome, Russian Federation

...

Latest news about this satellite

There are no fresh news available about this satellite. Check back as we update our databases every day.


Newsletter sign-up

Weekly statistics, charts and insights to help you stay on top of the space industry.